| time (UTC) | temp F | wind direction | speed knots | gust knots | rain 1hr in | rain 24hr in | rain mn in | humidity % | barometer mb |
| 20260506213031 | 57 | 176 | 1.7 | 6.1 | 0.00 | 0.00 | 0.00 | 66 | 1026.1 |
| 20260506211757 | 57 | 181 | 0.9 | 3.5 | 0.00 | 0.00 | 0.00 | 66 | 1025.8 |
| 20260506210030 | 57 | 167 | 2.6 | 4.3 | 0.00 | 0.00 | 0.00 | 66 | 1025.6 |
| 20260506203030 | 57 | 215 | 1.7 | 4.3 | 0.00 | 0.00 | 0.00 | 66 | 1025.7 |
| 20260506201529 | 57 | 192 | 1.7 | 4.3 | 0.00 | 0.00 | 0.00 | 66 | 1025.6 |
| 20260506200030 | 57 | 47 | 2.6 | 5.2 | 0.00 | 0.00 | 0.00 | 66 | 1025.6 |
| 20260506194528 | 56 | 46 | 2.6 | 4.3 | 0.00 | 0.00 | 0.00 | 67 | 1025.5 |
| 20260506193030 | 56 | 161 | 1.7 | 3.5 | 0.00 | 0.00 | 0.00 | 67 | 1025.4 |
| 20260506191527 | 56 | 150 | 1.7 | 2.6 | 0.00 | 0.00 | 0.00 | 67 | 1025.4 |
| 20260506190030 | 57 | 188 | 1.7 | 4.3 | 0.00 | 0.00 | 0.00 | 66 | 1025.6 |
| 20260506184530 | 57 | 147 | 1.7 | 4.3 | 0.00 | 0.00 | 0.00 | 67 | 1025.5 |
| 20260506183028 | 56 | 196 | 1.7 | 3.5 | 0.00 | 0.00 | 0.00 | 68 | 1025.5 |
| 20260506181528 | 56 | 180 | 0.9 | 1.7 | 0.00 | 0.00 | 0.00 | 68 | 1025.7 |
| 20260506180028 | 56 | 180 | 0.9 | 1.7 | 0.00 | 0.00 | 0.00 | 68 | 1025.7 |
| 20260506174529 | 56 | 0 | 0.0 | 1.7 | 0.00 | 0.00 | 0.00 | 67 | 1025.8 |
| 20260506173029 | 57 | 180 | 0.0 | 0.9 | 0.00 | 0.00 | 0.00 | 66 | 1025.8 |
| 20260506171528 | 58 | 0 | 0.0 | 1.7 | 0.00 | 0.00 | 0.00 | 65 | 1025.8 |
| 20260506170030 | 58 | 0 | 0.0 | 1.7 | 0.00 | 0.00 | 0.00 | 65 | 1025.6 |
| 20260506164530 | 58 | 180 | 0.0 | 1.7 | 0.00 | 0.00 | 0.00 | 65 | 1025.6 |
| 20260506163032 | 58 | 180 | 0.0 | 1.7 | 0.00 | 0.00 | 0.00 | 64 | 1025.6 |
| 20260506161533 | 58 | 0 | 0.0 | 0.9 | 0.00 | 0.00 | 0.00 | 63 | 1025.5 |
| 20260506160029 | 59 | 180 | 0.0 | 0.9 | 0.00 | 0.00 | 0.00 | 63 | 1025.6 |
| 20260506154530 | 59 | 180 | 0.0 | 0.9 | 0.00 | 0.00 | 0.00 | 62 | 1025.6 |
| 20260506153027 | 59 | 181 | 0.0 | 0.9 | 0.00 | 0.00 | 0.00 | 62 | 1025.6 |
| 20260506151529 | 58 | 0 | 0.0 | 0.9 | 0.00 | 0.00 | 0.00 | 63 | 1025.8 |
| 20260506150027 | 58 | 0 | 0.0 | 0.0 | 0.00 | 0.00 | 0.00 | 61 | 1025.9 |
| 20260506144534 | 59 | 181 | 0.0 | 0.9 | 0.00 | 0.00 | 0.00 | 59 | 1025.9 |
| 20260506143030 | 60 | 180 | 0.0 | 0.9 | 0.00 | 0.00 | 0.00 | 58 | 1025.9 |
| 20260506141535 | 60 | 180 | 0.9 | 1.7 | 0.00 | 0.00 | 0.00 | 57 | 1025.9 |
| 20260506140030 | 61 | 180 | 0.9 | 1.7 | 0.00 | 0.00 | 0.00 | 57 | 1025.9 |
| 20260506134529 | 61 | 180 | 0.0 | 0.9 | 0.00 | 0.00 | 0.00 | 56 | 1025.9 |
| 20260506133035 | 61 | 180 | 0.0 | 0.9 | 0.00 | 0.00 | 0.00 | 55 | 1025.8 |
| 20260506131528 | 62 | 180 | 0.0 | 0.9 | 0.00 | 0.00 | 0.00 | 54 | 1025.7 |
| 20260506130030 | 62 | 180 | 0.0 | 0.9 | 0.00 | 0.00 | 0.00 | 54 | 1025.7 |
| 20260506124540 | 62 | 180 | 0.0 | 0.9 | 0.00 | 0.00 | 0.00 | 53 | 1025.6 |
| 20260506123030 | 63 | 180 | 0.0 | 1.7 | 0.00 | 0.00 | 0.00 | 52 | 1025.4 |
| 20260506121530 | 63 | 0 | 0.0 | 0.0 | 0.00 | 0.00 | 0.00 | 51 | 1025.3 |
| 20260506120030 | 63 | 0 | 0.0 | 0.0 | 0.00 | 0.00 | 0.00 | 50 | 1025.0 |
| 20260506114527 | 63 | 0 | 0.0 | 0.0 | 0.00 | 0.00 | 0.00 | 50 | 1024.7 |
| 20260506113031 | 64 | 0 | 0.0 | 0.0 | 0.00 | 0.00 | 0.00 | 48 | 1024.7 |
| 20260506111530 | 65 | 0 | 0.0 | 0.0 | 0.00 | 0.00 | 0.00 | 45 | 1024.6 |
| 20260506110030 | 67 | 0 | 0.0 | 0.0 | 0.00 | 0.00 | 0.00 | 44 | 1024.4 |
| 20260506104529 | 68 | 0 | 0.0 | 0.0 | 0.00 | 0.00 | 0.00 | 42 | 1024.4 |
| 20260506103030 | 70 | 180 | 0.0 | 0.9 | 0.00 | 0.00 | 0.00 | 40 | 1024.2 |
| 20260506101530 | 71 | 180 | 0.0 | 1.7 | 0.00 | 0.00 | 0.00 | 38 | 1024.1 |
| 20260506100028 | 73 | 153 | 1.7 | 4.3 | 0.00 | 0.00 | 0.00 | 36 | 1023.9 |
| 20260506094529 | 74 | 107 | 2.6 | 7.8 | 0.00 | 0.00 | 0.00 | 35 | 1023.9 |
| 20260506093038 | 75 | 111 | 3.5 | 7.8 | 0.00 | 0.00 | 0.00 | 34 | 1023.7 |
| 20260506091531 | 76 | 86 | 3.5 | 8.7 | 0.00 | 0.00 | 0.00 | 34 | 1023.6 |
| 20260506090030 | 76 | 126 | 4.3 | 11.3 | 0.00 | 0.00 | 0.00 | 33 | 1023.5 |
| 20260506084536 | 77 | 44 | 3.5 | 7.8 | 0.00 | 0.00 | 0.00 | 33 | 1023.4 |
| 20260506083311 | 77 | 63 | 3.5 | 9.6 | 0.00 | 0.00 | 0.00 | 32 | 1023.3 |
| 20260506073032 | 79 | 309 | 5.2 | 9.6 | 0.00 | 0.00 | 0.00 | 32 | 1023.2 |
| 20260506071532 | 79 | 87 | 3.5 | 10.4 | 0.00 | 0.00 | 0.00 | 31 | 1023.2 |
| 20260506060133 | 81 | 84 | 5.2 | 12.2 | 0.00 | 0.00 | 0.00 | 30 | 1023.5 |
| 20260506001615 | 59 | 325 | 3.5 | 7.0 | 0.00 | 0.00 | 0.00 | 63 | 1026.2 |
| 20260505234948 | 56 | 21 | 1.7 | 3.5 | 0.00 | 0.00 | 0.00 | 66 | 1025.8 |
| 20260505233032 | 55 | 180 | 0.9 | 1.7 | 0.00 | 0.00 | 0.00 | 66 | 1025.5 |
| 20260505231556 | 55 | 209 | 0.0 | 1.7 | 0.00 | 0.00 | 0.00 | 65 | 1025.3 |
| 20260505230033 | 56 | 185 | 0.9 | 3.5 | 0.00 | 0.00 | 0.00 | 64 | 1025.1 |
| 20260505223226 | 56 | 325 | 3.5 | 5.2 | 0.00 | 0.00 | 0.00 | 64 | 1024.9 |
| 20260505221530 | 56 | 326 | 2.6 | 6.1 | 0.00 | 0.00 | 0.00 | 63 | 1024.7 |
| 20260505220449 | 57 | 339 | 4.3 | 7.8 | 0.00 | 0.00 | 0.00 | 63 | 1024.5 |
| 20260505214915 | 57 | 71 | 3.5 | 7.8 | 0.00 | 0.00 | 0.00 | 63 | 1024.3 |